Flag for Poland

Past Weather in Bielsko-Biała, Poland — Yesterday and Last 2 Weeks

Now
72 °F

Partly sunny.


Feels Like: 77 °F
Forecast: 76 / 53 °F
Wind: 2 mph from South

Location: Katowice

Current Time: Jul 14, 2020 at 4:19:49 pm

Latest Report: Jul 14, 2020 at 3:00 pm


Visibility: 19 mi

Pressure: 30.02 "Hg

Humidity: 39%

Dew Point: 46 °F

Location of Bielsko-BiałaLocation

Past Weather in Bielsko-Biała — Graph

°F

Bielsko-Biała Temperature Yesterday

Maximum temperature yesterday: 65 °F (at 5:00 pm)
Minimum temperature yesterday: 46 °F (at 3:00 am)
Average temperature yesterday: 57 °F

High & Low Weather Summary for the Past Weeks

 TemperatureHumidityPressure
High85 °F (Jul 10, 5:00 pm)97% (Jun 30, 4:00 am)30.30 "Hg (Jun 30, 4:00 am)
Low46 °F (Jul 13, 3:00 am)35% (Jul 10, 6:00 pm)29.74 "Hg (Jul 6, 2:00 pm)
Average64 °F72%30.00 "Hg
* Reported Jun 29 2:00 pm — Jul 14 2:00 pm, Bielsko-Biała. Weather by CustomWeather, © 2020

Note: Actual official high and low records may vary slightly from our data, if they occured in-between our weather recording intervals... More about our weather records

Bielsko-Biała Weather History for the Previous 24 Hours

Scroll right to see more
 ConditionsComfort  
Time TempWeatherWind HumidityBarometerVisibility
2:00 pm
Tue, Jul 14
70 °FPartly sunny.3 mph41%30.04 "Hg19 mi
1:00 pm70 °FPartly sunny.3 mph46%30.06 "Hg19 mi
12:00 pm68 °FPartly sunny.2 mph47%30.08 "Hg19 mi
11:00 am67 °FScattered clouds.2 mph53%30.09 "Hg19 mi
10:00 am65 °FScattered clouds.2 mph57%30.11 "Hg19 mi
9:00 am63 °FPassing clouds.2 mph67%30.12 "Hg19 mi
8:00 am59 °FPassing clouds.1 mph81%30.14 "Hg12 mi
7:00 am55 °FPassing clouds.1 mph95%30.15 "Hg6 mi
6:00 am47 °FSunny.No wind96%30.17 "Hg6 mi
5:00 am47 °FPassing clouds.No wind96%30.17 "Hg6 mi
4:00 am47 °FClear.No wind95%30.17 "Hg12 mi
3:00 am47 °FClear.1 mph95%30.18 "Hg12 mi
2:00 am48 °FClear.No wind95%30.19 "Hg6 mi
1:00 am49 °FClear.1 mph94%30.19 "Hg6 mi
12:00 am51 °FPassing clouds.1 mph93%30.19 "Hg12 mi
11:00 pm
Mon, Jul 13
52 °FPassing clouds.1 mph89%30.19 "Hg19 mi
10:00 pm56 °FOvercast.1 mph80%30.19 "Hg19 mi
9:00 pm61 °FOvercast.No wind62%30.19 "Hg19 mi
8:00 pm63 °FOvercast.1 mph56%30.17 "Hg19 mi
7:00 pm64 °FOvercast.1 mph54%30.18 "Hg31 mi
6:00 pm64 °FOvercast.1 mph52%30.19 "Hg31 mi
5:00 pm65 °FOvercast.1 mph49%30.19 "Hg31 mi
4:00 pm64 °FOvercast.1 mph51%30.21 "Hg19 mi
Weather by CustomWeather, © 2020

See weather overview